User: anonymous   Login
Location: Solon
(41.3849°N, 81.4081°W)
Time: 19:05:35
(UTC-04:00)
Language:

CZ-2C R/B - Orbit

View from above orbital plane
View from above orbital plane
View from above satellite
View from above satellite

Ground track
Ground track

The orbit data is extracted from the following two-line orbital elements,

1 28480U 04046B   16177.35139566  .00000054  00000-0  36168-4 0  9993
2 28480  98.1832 290.7167 0141810 197.1850 230.7946 14.25597384603393
Epoch (UTC): 25 June 2016 08:26:00
Eccentricity: 0.0141810
inclination: 98.1832°
perigee height: 704 km
apogee height: 908 km
right ascension of ascending node: 290.7167°
argument of perigee: 197.1850°
revolutions per day: 14.25597384
mean anomaly at epoch: 230.7946°
orbit number at epoch: 60339

The dashed part of the orbit path shows where the satellite is in the earth's shadow,  

DLR